Location: Capannuccia
(43.7000°N, 11.3000°E)
Time: 12:13:45
(UTC+00:00)

Cosmos 1408 - Pass Details

Date: 07 June 2020
Orbit: 469 x 496 km, 82.6° (Epoch: 01 July)

Event Time Altitude Azimuth Distance (km) Brightness Sun altitude
Exits shadow 01:49:33 23° 184° (S) 1,098 3.9 -14.5°
Maximum altitude 01:51:47 85° 97° (E) 499 2.6 -14.3°
Drops below altitude 10° 01:55:29 10° 9° (N) 1,685 6.3 -13.9°
Sets 01:57:35 0° 9° (N) 2,567 7.4 -13.6°
